Terug naar catalogus

STRIX-8

ActiefWetenschapVLEO
NORAD 69701·PAYLOAD·🇯🇵 Japan

Gelanceerd Jun 26, 2026 vanaf Rocket Lab Launch Complex 1

Loading…

Volgende Passages (komende 24 uur)

TLE

VersSource: Space-Track

Epoch: Sep 14, 2026, 13:18 UTC

1 69701U 26146A   26257.55486080  .00003232  00000-0  23817-3 0  9994
2 69701  41.9903  33.0762 0005846  68.2973 291.8476 15.04822801 12023

Volg STRIX-8 in realtime met AllMySat

Download on the App Store